Wetbulb
55.57 56.31 56.45 56.40 56.20 56.31 56.27 56.23 56.12 55.76 55.70 55.86 56.04 55.76 55.32 55.44 54.97 49.86 45.07 51.92 53.68 56.45 53.29 46.18 45.58 45.13 45.70 41.43 42.10 39.90 31.11 31.12 34.78 37.81 40.55 46.81 45.57 48.16 50.40 48.66 51.19 56.40 57.75 59.66 61.98
56.27 56.30 56.29 56.15 55.94 55.90 55.91 55.74 55.37 55.38 55.54 55.68 55.62 55.26 55.03 55.22 49.60 46.40 52.13 54.85 55.71 54.41 45.43 42.37 40.77 42.98 39.72 40.20 39.47 34.71 30.12 33.03 39.88 39.99 38.46 41.19 41.82 43.78 45.08 45.41 48.07 53.39 59.64 61.02 61.05
56.12 55.90 55.73 55.32 55.16 54.90 54.85 54.88 54.89 55.02 55.12 55.10 55.07 54.78 54.80 53.74 45.23 46.04 53.29 53.60 53.18 51.61 47.16 44.67 44.46 42.83 37.92 39.29 38.06 36.26 31.63 36.45 38.04 40.02 40.28 38.70 38.56 42.33 43.40 42.53 47.85 43.91 48.28 59.27 59.44
55.25 54.89 54.49 54.04 53.99 54.13 54.31 54.34 54.35 54.46 54.59 54.60 54.60 54.52 54.87 50.19 29.44 47.80 51.36 50.56 51.78 49.31 45.90 43.81 42.31 37.55 35.18 33.83 38.44 32.48 37.16 38.08 39.29 40.11 38.91 37.07 38.54 37.25 40.08 42.84 48.98 47.89 49.40 54.03 58.44
54.12 53.74 53.53 53.58 53.84 54.02 54.23 54.35 54.41 54.17 54.14 54.23 54.26 54.19 50.06 41.87 41.39 49.35 50.66 50.14 48.29 46.65 43.27 41.73 38.88 37.19 33.29 34.59 35.33 33.28 35.89 38.65 39.47 39.62 39.12 39.47 37.31 36.87 38.06 41.01 45.33 47.89 50.66 51.03 58.31
53.24 53.30 53.68 53.63 53.72 53.87 53.90 54.24 54.36 54.07 53.69 53.79 53.76 53.71 45.85 35.92 48.71 49.87 48.09 47.50 47.02 44.51 42.27 41.73 39.74 40.50 36.05 34.69 32.96 36.21 35.43 35.78 37.64 37.76 38.48 37.02 36.69 36.90 39.73 41.25 41.89 44.64 46.42 49.13 57.46
53.29 53.35 53.20 53.27 53.33 53.35 53.34 53.69 53.81 53.23 52.93 53.15 53.08 50.59 43.78 40.48 48.36 47.23 46.68 45.74 46.15 44.63 41.01 42.98 42.71 39.10 38.02 33.77 37.82 36.35 30.88 33.35 34.15 36.47 35.79 38.31 33.44 34.36 39.56 41.16 40.51 42.16 44.21 47.35 56.27
52.91 52.99 53.13 52.96 52.70 52.64 52.95 53.24 53.50 53.39 52.22 52.72 52.55 47.54 38.37 48.30 44.93 45.89 46.34 44.06 45.12 45.41 43.86 43.93 43.99 40.35 37.60 38.38 35.65 31.63 30.79 23.64 31.73 34.36 36.22 35.10 26.85 35.81 39.38 39.13 39.10 40.97 42.79 46.80 48.64
52.99 53.29 52.96 53.10 53.24 53.03 52.96 53.72 54.03 53.03 51.74 52.41 47.07 43.44 36.37 49.63 42.77 44.93 44.66 41.91 43.07 43.51 43.33 45.07 41.46 36.67 36.34 30.56 27.38 28.31 22.23 23.82 27.59 35.10 34.41 33.28 29.25 35.98 39.09 38.33 37.59 39.69 41.56 46.45 48.51
53.09 52.99 52.74 52.85 53.03 53.32 53.62 53.76 52.96 47.74 47.94 49.53 46.48 34.80 40.64 37.47 41.88 43.65 44.69 43.96 40.39 39.79 38.94 38.38 35.75 31.08 30.45 28.76 18.50 21.01 22.62 25.48 25.03 31.42 32.81 30.47 29.98 34.73 38.11 37.75 36.71 36.15 38.50 42.36 48.00
52.22 52.06 52.04 52.30 52.25 52.30 48.64 41.56 36.90 34.32 37.55 33.65 34.81 36.10 38.32 42.32 43.93 41.61 43.50 40.72 38.86 35.56 27.95 33.50 28.90 26.23 28.63 30.62 30.60 29.14 26.81 25.33 28.46 32.76 30.27 29.07 29.51 32.48 33.98 34.40 33.78 35.87 36.12 39.91 43.37
51.27 51.41 51.32 51.24 51.35 51.87 44.10 38.16 38.82 39.66 32.29 38.27 38.78 38.90 41.35 41.56 35.88 38.85 42.65 34.33 33.01 26.69 30.67 28.83 24.50 30.27 32.66 32.58 30.44 28.65 25.81 25.04 28.89 32.08 30.27 28.84 28.22 31.91 33.63 34.24 34.93 35.32 36.27 38.81 42.24
51.23 51.46 51.29 51.46 51.68 45.31 40.82 40.30 45.13 44.32 30.62 34.99 39.40 37.66 37.69 39.76 34.56 34.87 38.74 35.63 30.80 27.79 28.52 26.06 28.64 32.95 30.73 29.12 27.41 27.24 25.26 25.11 25.67 30.17 31.88 28.85 25.25 28.25 32.58 34.49 36.38 37.21 38.12 39.05 39.78
50.78 51.23 51.30 51.48 43.55 41.75 38.88 44.08 45.29 44.53 23.15 30.78 33.08 36.57 38.21 37.61 32.15 39.64 40.32 35.30 31.52 27.00 28.49 27.79 32.44 31.02 29.11 27.22 28.06 22.66 29.86 29.38 27.59 24.89 19.87 29.30 17.50 25.34 29.49 31.07 33.81 35.90 37.31 38.02 39.10
50.68 50.67 49.93 51.03 40.54 39.45 42.13 44.37 43.37 39.14 7.04 29.76 31.74 40.79 37.62 32.91 33.44 34.70 39.74 35.58 28.78 28.87 28.18 25.66 28.20 27.53 25.81 27.34 29.76 24.77 30.69 28.60 27.84 25.20 24.82 24.60 20.37 21.79 28.95 27.83 31.25 34.24 36.23 38.03 39.13
50.63 49.83 49.40 44.16 42.30 41.95 43.49 42.53 38.38 18.30 7.79 24.24 31.83 29.41 28.96 31.95 32.38 34.24 33.72 36.30 35.81 31.15 30.90 29.32 33.67 30.51 29.46 30.95 31.53 31.84 29.68 28.86 29.05 26.61 17.48 22.36 22.05 20.64 23.90 27.76 30.95 34.44 36.50 38.73 39.26
50.26 49.23 46.45 44.99 36.87 42.09 41.25 36.12 18.57 11.57 24.59 20.42 24.10 27.69 26.83 26.83 28.13 29.06 26.87 25.21 23.71 16.32 17.67 23.63 26.19 31.95 32.25 26.88 30.43 29.32 24.77 17.73 14.68 16.18 9.50 24.53 21.06 22.88 28.94 31.87 32.94 33.57 35.46 38.17 39.55
49.76 48.57 46.77 43.53 41.58 40.45 37.83 25.30 9.62 10.94 13.52 28.44 26.69 26.67 24.07 25.85 25.34 25.32 23.44 21.03 27.82 24.22 18.88 12.15 12.95 26.24 31.82 26.96 24.90 26.76 24.04 14.46 4.92 6.27 10.68 23.83 13.69 23.61 32.50 34.64 35.77 36.58 36.67 37.89 39.02
48.66 42.34 41.88 41.47 41.70 39.22 29.23 15.52 11.03 15.38 25.66 24.39 24.65 16.85 16.26 24.78 23.53 22.27 20.50 21.02 25.48 25.70 15.60 15.59 16.47 29.25 29.14 31.26 32.00 28.39 22.73 29.73 20.18 16.69 17.66 21.45 26.37 31.91 34.53 34.07 34.50 34.78 36.17 36.14 38.81
38.54 38.78 39.79 40.87 39.97 36.40 23.31 17.75 13.35 26.94 27.98 25.59 14.71 19.54 10.57 17.07 18.72 20.66 19.48 25.68 25.13 27.50 28.05 21.41 15.19 25.39 29.01 33.41 33.08 29.92 31.82 23.86 22.63 12.21 11.78 19.41 20.71 24.58 29.45 34.37 33.63 33.72 34.92 36.64 38.51
39.07 30.47 39.08 40.11 36.89 26.78 13.26 8.89 21.87 29.77 30.80 23.60 17.43 17.52 17.86 19.20 22.19 17.63 20.23 25.34 26.69 26.27 27.82 25.57 21.61 21.21 26.33 24.27 25.10 25.55 23.01 25.20 26.10 24.70 15.89 14.89 19.83 30.83 30.78 35.73 38.23 40.08 38.16 38.33 38.92
35.94 21.95 39.54 38.74 23.85 27.70 14.77 15.74 29.71 27.12 31.41 29.33 27.52 24.41 16.32 21.01 16.59 20.29 20.40 23.04 28.94 27.20 22.00 26.89 23.26 16.99 19.95 27.43 31.20 28.52 24.15 23.17 17.01 20.15 22.84 21.10 21.11 31.56 31.84 36.99 40.45 40.67 42.17 43.47 44.10
31.87 28.42 38.43 33.82 14.41 9.36 20.19 24.82 26.83 26.14 26.95 27.11 25.77 26.33 19.93 15.75 16.27 18.39 22.55 27.93 28.56 26.80 24.97 27.48 21.22 13.63 16.20 25.08 28.34 22.71 24.39 21.91 22.86 23.71 22.47 19.08 21.07 31.01 32.10 36.73 37.95 38.08 38.65 39.77 39.94
29.65 20.51 24.89 28.56 25.88 22.23 17.65 16.41 18.71 28.71 27.93 29.82 28.15 27.93 19.63 13.66 22.01 17.35 22.15 26.43 28.96 28.46 31.53 29.65 23.61 19.35 13.66 17.83 22.72 18.03 20.63 20.82 20.06 14.95 18.20 19.26 19.72 22.62 27.06 32.64 34.77 35.60 36.74 37.75 37.66
28.75 20.49 19.09 13.34 17.01 23.87 23.97 23.50 21.84 19.74 28.20 28.41 24.20 19.36 17.98 14.49 17.27 11.89 22.00 25.07 27.70 30.43 28.01 26.78 19.91 22.39 22.76 23.72 23.70 19.09 18.72 19.10 15.73 16.89 16.18 20.13 18.04 19.75 22.94 31.15 33.33 35.00 35.38 34.84 35.18
27.59 23.98 20.13 14.52 24.74 24.69 25.64 21.49 23.94 24.57 24.54 21.92 16.57 20.43 17.93 14.63 18.37 19.30 23.39 23.58 22.66 26.60 24.95 28.08 19.27 22.88 20.70 25.61 22.92 17.96 18.62 20.00 17.32 16.57 17.72 20.75 18.07 22.98 22.59 27.87 29.62 31.43 32.13 31.78 31.63
31.78 30.09 29.09 25.54 24.35 19.68 22.44 23.99 24.47 25.51 26.67 27.51 25.57 23.02 17.64 20.33 25.07 26.38 27.28 26.78 26.66 24.52 24.42 24.22 22.47 19.68 16.51 23.69 24.41 13.76 16.42 19.12 16.58 17.40 17.15 13.00 20.08 22.44 18.03 18.60 19.62 23.67 27.24 28.29 29.12
MSLP
1022.11 1021.91 1021.71 1021.55 1021.60 1021.43 1021.06 1020.69 1020.37 1020.05 1019.76 1019.48 1019.19 1018.95 1018.53 1018.08 1017.59 1017.10 1016.47 1016.37 1016.30 1016.22 1015.99 1015.69 1015.28 1015.11 1014.59 1014.38 1014.08 1013.94 1013.97 1012.02 1011.37 1011.33 1010.45 1009.54 1008.77 1008.04 1007.91 1007.65 1006.64 1005.35 1005.12 1005.96 1006.33
1022.25 1022.00 1021.75 1021.72 1021.59 1021.43 1021.09 1020.84 1020.50 1020.17 1019.86 1019.61 1019.29 1018.96 1018.48 1018.04 1017.73 1017.11 1016.70 1016.30 1016.18 1016.35 1016.20 1015.87 1015.47 1015.29 1015.20 1014.66 1014.18 1014.07 1013.51 1012.52 1012.08 1011.47 1010.91 1010.28 1009.73 1009.37 1008.64 1007.90 1006.79 1006.70 1006.46 1006.19 1006.64
1022.45 1022.14 1021.97 1021.76 1021.59 1021.31 1021.05 1020.76 1020.54 1020.30 1020.03 1019.76 1019.38 1018.96 1018.45 1018.04 1017.77 1016.80 1016.65 1016.43 1016.37 1016.44 1016.36 1016.07 1015.74 1015.61 1015.34 1014.84 1014.32 1013.73 1013.01 1012.74 1012.10 1011.48 1011.06 1010.80 1010.24 1010.01 1009.45 1008.56 1008.07 1008.83 1008.52 1007.42 1006.95
1022.66 1022.49 1022.18 1021.88 1021.53 1021.25 1021.01 1020.67 1020.35 1020.13 1019.82 1019.62 1019.36 1019.00 1018.34 1018.17 1018.03 1016.84 1016.68 1016.47 1016.29 1016.14 1016.22 1015.98 1015.92 1016.06 1015.98 1015.51 1014.72 1014.26 1013.43 1012.84 1012.24 1011.65 1011.30 1010.95 1010.66 1009.91 1009.76 1009.06 1008.81 1008.35 1008.68 1008.10 1007.48
1022.69 1022.56 1022.33 1022.00 1021.50 1021.10 1020.90 1020.59 1020.29 1020.08 1019.75 1019.33 1019.15 1018.94 1018.76 1018.11 1017.20 1016.47 1016.36 1016.30 1016.20 1016.12 1016.12 1016.12 1016.08 1016.09 1015.90 1015.69 1015.18 1014.33 1013.64 1012.90 1012.37 1011.85 1011.42 1010.89 1010.44 1010.02 1008.62 1009.22 1008.88 1008.38 1008.08 1008.05 1007.53
1022.85 1022.67 1022.36 1022.08 1021.60 1021.04 1020.61 1020.29 1019.97 1019.87 1019.42 1019.03 1018.89 1018.91 1018.93 1018.14 1016.21 1016.05 1016.12 1016.20 1016.22 1016.18 1016.17 1016.19 1016.07 1016.02 1015.76 1015.49 1015.42 1014.52 1014.06 1013.26 1012.53 1012.00 1011.61 1011.26 1010.57 1010.19 1007.93 1009.01 1008.70 1008.38 1008.20 1007.88 1007.27
1022.87 1022.69 1022.37 1022.09 1021.59 1020.93 1020.33 1019.77 1019.57 1019.52 1019.05 1018.77 1018.63 1018.70 1018.67 1017.60 1016.23 1016.05 1016.09 1016.04 1015.91 1016.03 1015.98 1015.83 1015.88 1016.20 1016.03 1015.67 1015.14 1014.87 1014.53 1013.50 1012.56 1011.90 1011.54 1011.32 1010.41 1009.14 1008.99 1008.45 1007.88 1007.56 1007.45 1007.23 1007.34
1023.07 1022.81 1022.37 1021.88 1021.50 1020.94 1020.32 1019.61 1019.14 1019.19 1018.82 1018.57 1018.41 1018.59 1017.97 1016.37 1016.14 1016.19 1015.95 1015.92 1015.61 1015.40 1015.46 1015.34 1015.48 1015.75 1016.13 1015.93 1015.36 1015.31 1015.00 1013.68 1011.73 1011.70 1010.91 1011.18 1008.99 1009.36 1009.40 1008.49 1007.54 1006.99 1006.73 1006.61 1006.31
1023.12 1022.83 1022.51 1021.90 1021.45 1020.86 1020.05 1019.10 1018.49 1018.49 1018.59 1018.50 1018.59 1018.51 1017.66 1016.25 1016.33 1016.21 1016.04 1015.91 1015.50 1015.23 1014.99 1014.87 1015.02 1015.45 1015.87 1016.03 1015.84 1015.18 1014.56 1013.59 1012.34 1011.28 1010.77 1010.45 1009.04 1008.90 1008.67 1008.07 1007.09 1006.53 1006.12 1006.01 1005.77
1023.22 1022.84 1022.53 1022.07 1021.50 1020.78 1019.75 1018.58 1018.10 1018.31 1018.40 1018.33 1018.14 1018.63 1017.43 1017.18 1016.60 1016.30 1015.66 1015.43 1015.31 1015.17 1015.05 1014.88 1015.02 1015.18 1015.48 1015.83 1015.06 1014.37 1014.16 1012.99 1012.12 1010.54 1010.39 1009.87 1009.03 1008.59 1008.07 1007.46 1006.75 1006.29 1006.08 1005.58 1005.68
1023.22 1022.83 1022.47 1021.96 1021.48 1020.84 1020.04 1019.15 1019.88 1019.46 1019.68 1019.69 1019.08 1018.90 1018.00 1017.12 1016.66 1016.15 1015.51 1015.21 1015.07 1015.27 1015.38 1015.11 1015.24 1014.65 1014.31 1014.52 1014.07 1013.71 1013.38 1012.58 1011.41 1010.66 1010.56 1009.65 1008.98 1008.57 1008.02 1007.37 1006.90 1006.04 1005.68 1004.88 1004.53
1023.29 1022.85 1022.32 1021.83 1021.47 1021.22 1021.10 1021.46 1022.43 1022.55 1021.11 1019.40 1018.97 1018.69 1017.85 1017.44 1016.74 1015.85 1015.22 1015.53 1015.51 1015.53 1015.39 1015.21 1014.07 1013.32 1013.62 1013.49 1013.37 1013.12 1012.65 1012.05 1010.59 1010.51 1010.68 1009.49 1008.64 1008.13 1007.65 1007.04 1006.54 1005.88 1005.44 1004.99 1004.30
1023.35 1022.89 1022.38 1021.58 1021.08 1021.51 1021.95 1022.46 1022.32 1022.30 1022.05 1019.61 1018.51 1018.06 1017.74 1017.48 1016.63 1015.81 1015.51 1015.53 1015.62 1015.29 1015.27 1015.10 1012.88 1013.30 1013.17 1013.09 1012.97 1012.54 1012.17 1011.60 1010.92 1010.68 1009.96 1009.36 1008.56 1007.69 1006.76 1006.22 1005.62 1005.06 1004.46 1004.82 1004.50
1023.48 1023.02 1022.44 1021.75 1021.62 1021.87 1022.31 1022.38 1022.36 1022.33 1021.98 1019.98 1018.52 1017.92 1017.67 1017.26 1016.35 1015.52 1015.48 1015.76 1015.65 1015.35 1015.04 1013.97 1012.82 1012.67 1012.71 1012.60 1012.69 1011.84 1011.38 1011.27 1010.98 1011.10 1009.63 1009.20 1007.90 1006.91 1006.26 1005.73 1005.02 1004.44 1003.91 1003.00 1003.38
1023.31 1022.90 1022.50 1021.89 1022.50 1022.62 1022.78 1022.42 1022.37 1022.71 1022.37 1020.26 1018.74 1017.65 1018.05 1018.31 1017.35 1016.00 1015.55 1015.50 1015.41 1015.05 1015.63 1013.30 1012.83 1012.62 1012.24 1012.06 1012.24 1011.23 1010.99 1010.73 1010.49 1010.22 1009.82 1009.06 1008.39 1006.06 1005.82 1004.96 1004.10 1003.58 1003.02 1002.68 1002.68
1023.33 1022.98 1022.68 1022.41 1022.75 1022.85 1022.38 1022.45 1022.86 1023.62 1022.81 1021.13 1019.74 1019.13 1019.14 1018.42 1017.77 1016.94 1016.41 1015.62 1014.84 1015.07 1014.69 1013.83 1012.76 1012.49 1011.80 1011.77 1011.73 1010.87 1010.60 1010.08 1009.88 1009.82 1008.67 1007.75 1008.17 1005.14 1004.21 1003.04 1002.83 1002.49 1002.10 1001.68 1002.09
1023.26 1022.96 1022.75 1022.65 1023.07 1022.49 1022.27 1022.87 1024.14 1025.01 1024.51 1022.83 1021.67 1021.15 1020.84 1019.81 1018.69 1018.24 1017.51 1016.91 1017.13 1016.39 1015.18 1014.12 1012.84 1012.18 1012.41 1011.91 1010.67 1010.77 1010.56 1009.80 1009.79 1009.57 1008.14 1006.67 1006.50 1003.60 1002.34 1001.93 1001.54 1001.16 1001.19 1000.98 1000.78
1023.20 1022.90 1022.88 1022.84 1022.92 1022.47 1022.56 1023.76 1026.21 1026.75 1025.96 1024.38 1023.33 1022.76 1022.16 1021.24 1020.34 1019.62 1018.90 1018.42 1017.95 1018.10 1017.25 1016.13 1013.55 1012.77 1012.48 1012.41 1011.56 1010.77 1010.74 1010.21 1009.63 1009.03 1007.82 1006.23 1004.56 1002.06 1000.93 1000.43 1000.16 1000.11 1000.12 1000.30 1000.16
1022.93 1022.99 1023.12 1023.07 1022.71 1022.55 1023.22 1026.00 1027.80 1027.40 1026.68 1025.82 1024.54 1024.13 1023.83 1022.90 1022.65 1021.41 1020.34 1019.37 1018.92 1018.79 1019.30 1017.92 1015.02 1012.94 1012.47 1011.53 1011.50 1010.31 1010.09 1009.17 1009.01 1008.39 1007.66 1005.30 1003.40 1001.79 1000.88 1000.26 999.68 999.65 999.69 999.76 999.77
1023.53 1023.60 1023.50 1023.09 1022.66 1023.12 1024.66 1027.47 1027.92 1026.90 1026.53 1026.40 1026.47 1025.87 1025.67 1024.17 1023.61 1022.70 1021.16 1019.48 1019.43 1019.28 1019.56 1019.05 1016.90 1013.51 1012.00 1011.79 1011.42 1010.98 1010.70 1009.12 1008.77 1008.38 1007.21 1005.63 1004.68 1003.17 1002.06 999.73 998.99 999.43 999.48 999.55 999.44
1023.69 1024.37 1023.47 1023.02 1022.90 1024.39 1027.62 1028.60 1027.87 1026.63 1026.31 1026.37 1026.35 1026.50 1026.39 1025.37 1024.67 1023.56 1021.94 1020.10 1019.60 1019.33 1019.33 1018.77 1018.22 1014.18 1013.35 1012.90 1012.64 1011.59 1011.21 1010.72 1009.70 1008.09 1007.55 1006.39 1005.19 1004.64 1003.30 1001.46 1000.24 999.67 999.23 999.42 999.02
1024.39 1024.66 1023.67 1022.98 1024.59 1027.13 1028.41 1028.55 1027.81 1026.72 1025.95 1025.70 1025.81 1026.34 1026.43 1026.05 1025.04 1024.18 1022.47 1021.20 1020.03 1020.03 1019.47 1019.00 1018.03 1016.05 1014.19 1013.11 1013.57 1013.37 1012.99 1012.29 1010.60 1008.52 1007.91 1007.45 1006.48 1005.69 1004.50 1002.88 1001.43 1000.88 1001.03 1000.47 1000.37
1025.27 1025.33 1024.12 1023.66 1026.42 1028.32 1028.42 1028.51 1027.92 1026.78 1026.09 1025.72 1025.77 1026.00 1026.62 1026.53 1026.07 1024.38 1022.62 1020.77 1020.54 1020.32 1019.74 1019.35 1018.30 1016.90 1014.41 1013.96 1013.68 1014.30 1013.75 1012.45 1009.94 1009.92 1009.38 1008.81 1008.47 1007.52 1005.70 1004.02 1003.33 1003.05 1003.04 1002.83 1002.87
1025.47 1026.35 1026.33 1026.54 1027.86 1028.43 1028.68 1028.83 1027.99 1026.50 1026.02 1025.73 1025.72 1026.04 1026.69 1026.64 1026.06 1024.55 1023.02 1021.19 1020.55 1019.92 1019.75 1019.67 1018.77 1018.20 1017.58 1016.81 1016.47 1015.97 1014.90 1013.98 1012.48 1012.16 1011.81 1011.88 1011.51 1009.63 1007.28 1005.85 1005.25 1005.15 1004.88 1004.76 1005.27
1025.94 1027.84 1028.15 1029.02 1028.90 1028.60 1028.51 1028.42 1027.95 1026.93 1025.87 1025.65 1025.76 1026.28 1026.93 1026.98 1025.82 1024.76 1023.07 1022.08 1020.39 1019.83 1019.87 1019.62 1018.77 1018.08 1017.20 1016.66 1017.24 1017.42 1016.72 1016.17 1015.31 1015.12 1014.31 1014.10 1013.26 1012.84 1011.49 1009.21 1008.36 1008.03 1007.31 1007.00 1007.50
1025.97 1027.07 1028.57 1028.94 1028.85 1028.53 1028.24 1028.05 1027.55 1026.79 1026.32 1025.95 1026.20 1025.94 1026.25 1026.58 1025.97 1024.47 1023.88 1023.08 1021.85 1020.23 1020.18 1019.69 1018.92 1018.02 1017.29 1016.98 1016.99 1017.87 1018.27 1018.18 1017.74 1017.36 1016.70 1016.21 1015.92 1016.04 1014.84 1012.43 1010.98 1011.10 1010.22 1010.30 1010.94
1025.60 1026.27 1026.86 1028.65 1028.73 1028.84 1028.18 1027.64 1027.09 1026.72 1025.89 1025.55 1025.77 1025.71 1025.21 1024.89 1024.63 1023.83 1023.44 1023.14 1022.78 1021.93 1020.56 1019.91 1019.19 1018.41 1017.52 1016.82 1016.88 1018.32 1019.94 1019.81 1020.35 1019.87 1019.42 1018.54 1018.99 1018.24 1016.78 1015.63 1015.50 1014.75 1013.51 1014.13 1014.72
Wind_Speed
8 9 10 12 12 13 13 13 14 14 14 16 17 18 19 21 23 6 4 4 4 10 12 8 6 8 9 4 5 1 3 12 12 5 11 14 15 3 9 5 12 2 8 6 9
8 10 10 11 11 12 13 14 14 14 15 16 16 18 20 21 12 7 1 3 6 10 6 8 10 8 4 4 5 4 5 6 5 8 8 12 11 9 9 14 12 5 8 11 14
10 10 10 10 11 12 13 13 14 15 16 16 16 17 19 16 4 2 1 5 7 8 5 7 7 6 5 4 5 5 12 10 13 12 11 9 14 7 4 7 3 7 14 7 13
11 10 9 9 11 12 13 14 15 15 16 16 16 16 18 2 4 3 3 4 9 9 5 6 5 7 4 7 9 8 11 12 8 7 10 12 9 9 10 10 12 15 14 13 10
9 9 10 11 12 13 16 17 17 17 17 16 14 13 6 4 6 5 4 5 7 6 5 6 6 4 4 9 12 8 8 12 12 12 13 13 13 12 19 9 11 15 11 14 15
9 10 11 13 15 16 18 19 19 18 19 18 13 9 2 4 5 1 4 3 4 4 5 6 4 7 8 7 7 6 15 16 16 16 13 14 14 6 23 9 16 17 13 15 11
9 11 12 14 17 18 20 20 19 19 17 14 8 3 4 10 4 6 5 4 5 5 5 5 6 3 7 9 12 9 9 14 15 8 10 11 17 25 16 15 18 17 15 14 8
10 11 13 15 17 19 22 22 21 18 13 9 3 1 6 6 3 7 5 5 6 5 4 7 8 8 5 7 14 13 7 7 13 10 11 13 23 17 12 19 21 19 12 11 10
10 11 14 16 17 20 21 22 21 8 8 4 0 3 8 5 4 6 4 5 7 8 6 8 5 7 3 7 10 5 9 9 14 11 15 12 21 17 18 19 21 18 15 9 9
10 12 15 17 18 19 21 24 5 1 5 6 3 2 4 6 5 11 6 7 8 6 5 3 3 5 3 6 9 5 7 11 14 15 12 15 13 7 11 15 14 11 14 11 9
11 14 16 16 18 17 13 6 8 7 7 4 8 5 10 8 8 4 12 5 4 2 4 5 6 11 12 17 18 16 19 21 20 20 15 17 16 12 8 11 10 11 8 14 15
12 14 17 17 18 12 5 6 2 4 10 6 10 8 10 6 8 10 4 3 4 10 8 6 18 19 16 17 21 20 21 21 22 15 11 17 19 15 13 16 14 15 12 10 14
12 14 17 19 15 5 7 5 2 3 3 8 5 3 6 3 7 10 3 4 5 8 10 11 17 18 18 18 17 17 17 18 21 15 18 16 18 16 12 12 15 17 17 12 11
13 15 17 20 6 4 3 5 3 1 4 5 4 3 4 5 6 4 2 3 3 10 9 12 10 10 17 20 20 23 21 20 19 15 17 11 12 16 14 16 18 18 16 15 12
11 14 17 9 2 3 4 6 3 3 6 10 7 0 8 4 11 6 2 4 15 20 4 19 18 22 22 18 14 12 11 16 18 17 12 14 6 7 13 17 17 16 18 17 12
10 13 14 4 2 0 4 5 3 9 7 8 5 14 13 4 6 6 7 10 10 7 12 19 20 14 8 11 14 15 12 18 13 9 12 12 11 13 14 23 21 21 20 18 14
9 10 5 1 3 6 4 3 8 8 6 12 8 11 12 8 8 8 14 10 5 9 12 15 6 1 2 11 9 7 6 3 2 5 7 5 10 20 12 21 23 22 19 19 16
11 8 2 2 4 4 3 7 10 5 6 6 7 13 6 12 7 12 12 7 7 7 10 7 12 4 3 9 9 11 4 2 5 2 6 5 8 9 17 21 21 24 19 15 15
12 2 1 3 5 3 6 9 8 6 4 10 13 5 7 5 5 11 6 4 5 11 5 8 9 8 11 9 4 3 4 5 3 4 3 4 5 11 9 9 21 18 12 11 16
2 3 2 6 4 5 8 1 3 2 3 3 2 4 5 8 9 13 6 4 6 11 13 4 12 8 15 2 3 4 8 3 0 3 4 3 9 3 18 14 14 16 15 12 9
3 4 4 6 4 7 6 6 4 5 4 3 3 5 6 7 7 4 6 12 6 11 14 8 5 12 11 6 8 10 10 6 7 3 2 4 3 10 17 17 10 5 3 5 9
3 3 4 2 7 3 3 4 4 5 4 5 3 5 5 4 5 4 6 5 12 12 17 4 5 7 17 7 7 8 12 8 5 2 1 2 3 17 22 13 10 15 13 14 17
2 3 3 5 5 4 5 3 3 3 3 4 3 3 1 4 7 4 6 6 16 19 5 7 3 8 11 4 4 12 18 22 10 6 4 4 6 17 20 9 15 15 17 17 20
4 3 6 6 1 5 3 3 6 4 5 5 6 4 5 3 5 9 11 10 18 17 7 13 4 5 5 10 11 16 21 26 16 6 5 9 10 23 26 20 21 19 21 21 21
3 2 5 2 5 2 4 2 3 5 3 2 4 2 1 5 10 5 6 17 6 6 9 5 4 6 13 13 3 21 21 25 22 18 9 13 14 21 23 18 20 20 22 26 25
4 5 3 2 1 3 1 3 3 4 3 5 3 7 5 5 8 20 14 11 7 7 14 2 5 6 3 11 7 19 24 19 19 20 10 13 15 17 17 19 26 22 25 26 25
0 2 5 2 1 4 3 3 5 4 4 5 5 7 4 8 7 15 16 15 16 16 6 4 4 5 5 8 1 7 23 12 18 22 11 12 10 14 22 25 24 22 25 25 23
Wind_Direction
3 8 12 9 2 355 351 348 348 347 343 342 341 337 333 328 328 314 322 78 54 354 331 316 344 330 328 282 202 319 271 251 260 267 276 300 300 356 316 331 318 232 147 172 128
14 16 14 7 360 353 350 346 343 341 341 338 335 331 330 328 322 294 41 17 7 350 340 339 326 314 311 273 302 179 228 260 289 310 305 313 311 325 355 343 318 12 59 133 131
23 21 15 7 358 352 348 345 340 338 334 329 329 328 326 329 301 72 6 23 359 334 299 295 272 302 277 275 254 255 257 282 289 297 302 308 305 319 334 294 239 2 334 198 162
25 17 8 0 356 350 343 339 334 328 323 321 323 325 321 306 356 54 348 343 333 306 295 309 335 337 305 294 297 289 289 281 291 297 303 295 293 286 266 262 280 304 298 269 242
21 8 1 355 351 349 339 331 325 323 317 310 311 319 340 348 257 218 234 314 322 328 312 310 307 307 299 311 316 296 295 300 317 310 294 290 282 273 276 287 270 287 307 322 210
12 1 356 350 346 341 334 326 320 321 313 304 298 317 273 278 267 198 266 284 286 312 307 314 298 309 273 255 252 301 307 298 295 286 288 294 297 288 276 296 285 285 288 291 217
5 0 354 346 339 335 328 321 317 321 313 308 289 288 267 254 262 326 312 254 252 251 254 247 276 328 328 310 273 271 302 303 284 282 283 294 270 262 291 294 279 270 269 272 241
1 353 348 341 336 332 325 315 313 319 302 305 259 300 254 269 306 316 300 281 284 280 232 250 247 248 223 277 291 287 281 263 264 257 257 229 258 263 268 275 276 281 256 248 265
355 352 346 342 336 329 321 311 309 287 279 260 10 185 278 297 323 311 314 292 281 278 270 276 255 230 256 262 285 228 263 250 284 254 261 244 263 252 246 253 265 268 262 244 248
356 352 344 342 340 332 326 317 334 13 293 232 265 42 284 314 310 301 276 268 259 264 323 279 218 217 216 207 242 226 227 263 264 276 285 292 286 284 243 242 253 256 247 240 242
358 351 343 342 342 342 342 14 12 356 34 287 278 258 286 295 290 276 289 302 286 278 248 256 239 236 235 228 240 260 265 268 269 270 273 273 277 280 287 291 291 281 270 250 240
355 349 339 338 336 348 17 60 93 259 315 278 255 254 264 264 298 277 286 327 340 288 286 277 255 264 264 257 256 269 277 271 276 272 254 269 271 267 262 268 263 275 278 275 256
351 345 337 333 330 53 97 56 318 314 279 299 231 264 276 299 270 299 31 327 291 281 280 269 269 306 285 285 290 277 272 273 273 303 278 260 273 261 249 251 271 264 264 248 262
350 345 335 334 46 322 56 348 2 312 44 295 329 304 313 293 291 343 233 213 298 283 293 271 273 287 301 285 273 271 268 265 271 275 270 200 259 248 241 249 253 258 258 263 249
346 344 335 350 261 43 306 341 293 33 23 297 308 147 325 326 278 339 287 332 286 285 242 261 291 292 287 287 303 275 280 261 262 259 265 243 255 260 235 244 241 241 250 246 240
341 345 338 24 13 219 328 341 45 41 298 334 315 332 342 297 314 288 335 307 266 302 276 281 298 289 288 307 261 262 277 255 243 243 244 240 208 243 219 224 236 241 237 250 227
335 337 347 337 295 309 3 64 35 87 341 304 320 343 324 317 316 351 332 341 34 340 330 328 293 204 346 306 287 233 304 305 218 205 232 170 203 242 235 227 228 231 235 237 224
324 330 296 111 301 343 59 52 54 241 254 325 319 318 330 4 323 346 340 347 37 15 306 343 326 24 278 293 276 290 223 261 244 234 268 260 244 248 230 228 224 233 229 235 224
325 350 335 303 325 41 70 54 201 224 292 326 320 23 324 348 306 356 321 282 50 42 30 324 279 315 299 311 294 11 173 273 281 218 250 235 299 325 342 283 227 235 219 220 222
14 8 306 315 3 53 68 216 213 255 290 32 334 43 321 312 343 347 309 295 359 29 10 273 288 290 328 353 268 276 324 315 319 288 281 304 303 283 328 311 211 224 230 242 232
50 33 268 330 56 46 101 226 280 275 329 187 265 297 253 303 319 297 278 301 28 349 350 291 226 290 329 30 352 4 2 337 289 221 248 308 267 340 333 343 355 57 219 257 208
54 22 294 26 53 48 101 198 265 281 287 278 238 220 235 313 302 281 268 284 346 332 328 304 290 285 290 305 238 356 342 336 271 237 174 252 303 346 341 326 41 50 39 36 57
91 252 319 75 80 329 319 308 259 282 289 310 277 192 183 322 325 249 282 276 321 330 311 337 308 308 337 39 51 2 345 344 312 195 318 22 353 338 338 33 55 61 57 59 63
78 18 334 39 132 130 63 289 302 246 255 248 264 325 1 295 229 279 290 311 325 311 329 346 260 243 262 284 313 352 358 8 11 30 329 24 349 344 352 29 49 52 58 61 62
49 241 180 318 332 48 108 188 277 326 262 316 314 168 174 300 298 239 253 314 295 324 0 311 286 282 291 263 154 30 8 15 19 2 31 9 15 353 352 30 49 59 64 60 59
128 135 340 168 257 20 40 272 275 293 267 288 180 283 186 219 211 292 307 326 286 309 328 335 278 321 307 116 72 41 14 22 17 6 5 16 32 4 1 27 45 45 59 58 54
231 19 103 305 42 70 230 264 269 344 284 239 315 308 286 245 250 266 267 270 264 293 310 293 307 328 308 323 353 26 9 10 25 26 346 16 3 10 22 37 33 33 46 56 55